[[{"header":{"parameterUnit":"m.s-1","parameterCategory":1,"la1":30.2991,"la2":30.254,"lo1":-89.0895,"lo2":-89.0444,"dy":0.0017,"dx":0.0017,"nx":28,"ny":28,"refTime":"2024-04-27T21:00:00:Z","depth":0,"parameterNumber":2,"parameterNumberName":"U-component_of_WINDS"},"data":[0,0,0,0,0,0,0,0,0,0,0,0,0,0,0,0,0,0,0,0,0,0,0,0,0,0,0,0,0,0,0,0,0,0,0,0,0,0,0,0,0,0,0,0,0,0,0,0,0,0,0,0,0,0,0,0,0,0,-6.9727,-6.9728,0,-6.9813,-6.9813,-6.9814,-6.98,-6.9799,-6.9797,-6.9796,-6.9879,-6.9883,-6.9886,0,0,0,0,0,0,0,0,0,0,0,0,0,-6.9548,-6.9552,-6.9727,-6.9728,-6.9729,-6.9812,-6.9814,-6.9815,-6.98,-6.9799,-6.9797,-6.9795,-6.9878,-6.9882,-6.9887,0,0,0,0,0,0,0,0,0,0,0,0,0,-6.9629,-6.9553,-6.9726,-6.9732,-6.9733,-6.9812,-6.9814,-6.9815,-6.9801,-6.9799,-6.9796,-6.9794,-6.9877,-6.9882,-6.9887,-6.9965,0,0,-6.9904,-6.9906,0,0,0,0,0,0,0,0,-6.9624,-6.9635,-6.973,-6.9732,-6.9733,-6.9793,-6.9781,-6.9865,-6.9801,-6.9775,-6.9796,-6.9793,-6.9852,-6.986,-6.988,-6.9969,-6.9973,-6.9904,-6.9908,-6.991,-6.9912,0,0,0,0,0,0,0,-6.9619,-6.9632,-6.976,-6.9731,-6.9733,-6.9729,-6.9738,-6.9797,-6.9825,-6.9777,-6.9776,-6.9787,-6.9853,-6.9875,-6.9882,-6.9974,-6.9904,-6.9909,-6.9912,-6.9915,-7.0132,-7.0134,0,0,0,0,0,0,-6.9612,-6.9627,-6.9758,-6.9763,-6.9672,-6.9734,-6.9744,-6.9776,-6.9824,-6.9829,-6.9789,-6.9786,-6.9867,-6.9876,-6.9885,-6.9979,-6.991,-6.9915,-6.9918,-7.0129,-7.0132,-7.0135,0,0,0,0,0,0,-6.9608,-6.9624,-6.9754,-6.9695,-6.9711,-6.974,-6.9776,-6.9779,-6.9801,-6.9833,-6.9838,-6.9807,-6.9866,-6.9878,-6.9946,-6.9981,-6.9917,-6.9922,-7.0126,-7.013,-7.0133,-7.0167,0,0,0,0,0,0,-6.9603,-6.9623,-6.9652,-6.9696,-6.9715,-6.9814,-6.9778,-6.9782,-6.9811,-6.9809,-6.9851,-6.9856,-6.9865,-6.9938,-6.9951,-6.9988,-6.9927,-7.0123,-7.0128,-7.0132,-7.0162,-7.0171,-7.0179,0,0,0,0,0,-6.9597,-6.9657,-6.9654,-6.967,-6.9753,-6.9816,-6.9827,-6.9837,-6.9814,-6.9844,-6.9865,-6.9855,-6.9977,-6.9945,-6.996,-6.9998,-7.0121,-7.0126,-7.0132,-7.0159,-7.0169,-7.0178,0,0,0,0,0,0,-6.9615,-6.9663,-6.966,-6.9736,-6.9773,-6.9813,-6.9851,-6.9848,-6.989,-6.9885,-6.9895,-6.9905,-6.9974,-6.9994,-6.9958,-7.0077,-7.0045,-7.0054,-7.0061,-7.0071,-7.0079,-7.0071,-6.9931,0,0,0,0,0,-6.9628,-6.9677,-6.9716,-6.978,-6.9798,-6.9822,-6.985,-6.9855,-6.9892,-6.9907,-6.9933,-6.9968,-7.0015,-7.0044,-7.0089,-7.0167,-7.0175,-7.0201,-7.0209,-7.0216,-7.0222,-7.0265,-7.0276,-7.0153,-7.0153,-7.0153,0,0,-6.9655,-6.9688,-6.9717,-6.9784,-6.9813,-6.9862,-6.9835,-6.9887,-6.9923,-6.9915,-6.998,-7.0001,-7.0042,-7.0115,-7.0149,-7.0134,-7.0259,-7.0223,-7.0228,-7.0231,-7.0272,-7.0283,-7.0294,-7.0157,-7.0157,-7.0156,0,0,-6.9729,-6.9759,-6.9815,-6.9846,-6.989,-6.9906,-6.992,-6.9963,-6.9977,-7.0044,-7.0039,-7.0082,-7.0162,-7.0191,-7.0216,-7.0306,-7.0297,-7.032,-7.036,-7.0402,-7.0411,-7.042,-7.045,-7.0461,-7.0327,-7.0327,-7.0327,0,-6.9755,-6.983,-6.9844,-6.9898,-6.9928,-6.9926,-6.9982,-7.001,-7.0067,-7.0087,-7.007,-7.0172,-7.0199,-7.0279,-7.0301,-7.0323,-7.0337,-7.0313,-7.0409,-7.0418,-7.0426,-7.0455,-7.0467,-7.033,-7.0329,-7.0329,-7.0329,0,-6.986,-6.9913,-6.9953,-7.0009,-7.0044,-7.0099,-7.0121,-7.0154,-7.0158,-7.0176,-7.0245,-7.0279,-7.033,-7.035,-7.0353,-7.0432,-7.0421,-7.0407,-7.0375,-7.044,-7.0467,-7.0478,-7.0333,-7.0332,-7.0331,-7.0331,0,0,-6.9942,-7.001,-7.0024,-7.005,-7.0101,-7.0141,-7.0197,-7.0249,-7.0277,-7.0318,-7.0363,-7.0433,-7.0421,-7.045,-7.0458,-7.0495,-7.0562,-7.0476,-7.0477,-7.0489,-7.0649,-7.0656,-7.0669,-7.0559,-7.0561,-7.0563,-7.0645,0,-7.0019,-7.0118,-7.0134,-7.022,-7.0268,-7.0269,-7.0318,-7.0354,-7.0374,-7.0417,-7.0439,-7.0487,-7.0469,-7.0486,-7.0523,-7.0546,-7.0594,-7.0541,-7.06,-7.0601,-7.0586,-7.0684,-7.0691,-7.0767,-7.0656,-7.0657,-7.0659,0,-7.012,-7.0165,-7.0257,-7.0303,-7.0324,-7.0367,-7.0417,-7.0459,-7.0501,-7.0513,-7.0547,-7.0551,-7.0609,-7.0578,-7.0657,-7.0621,-7.0647,-7.0662,-7.0665,-7.0668,-7.0631,-7.0686,-7.0791,-7.0801,-7.0676,-7.0675,-7.0673,0,-7.0168,-7.0252,-7.0318,-7.034,-7.0397,-7.0427,-7.0452,-7.0492,-7.0523,-7.0567,-7.0587,-7.0637,-7.0664,-7.0702,-7.0719,-7.0696,-7.0797,-7.0768,-7.0807,-7.0806,-7.0824,-7.0822,-7.0932,-7.0847,-7.0847,-7.0847,-7.0846,0,-7.0249,-7.0304,-7.034,-7.038,-7.0443,-7.0462,-7.0523,-7.0547,-7.0583,-7.0628,-7.0633,-7.0674,-7.0696,-7.0741,-7.0755,-7.0818,-7.083,-7.084,-7.0843,-7.0838,-7.0836,-7.0852,-7.0846,-7.085,-7.0849,-7.0848,-7.0848,0,-7.0311,-7.0337,-7.0409,-7.0458,-7.0472,-7.0515,-7.0557,-7.0596,-7.0617,-7.0673,-7.0688,-7.072,-7.0774,-7.0796,-7.0861,-7.0871,-7.0942,-7.0942,-7.0928,-7.0928,-7.0965,-7.096,-7.1085,-7.1102,-7.1009,-7.101,-7.1011,0,-7.0359,-7.0402,-7.0457,-7.0488,-7.0514,-7.0564,-7.0596,-7.0618,-7.0651,-7.0705,-7.0737,-7.0791,-7.0834,-7.092,-7.0949,-7.0999,-7.0998,-7.1039,-7.1005,-7.1,-7.0996,-7.0992,-7.0996,-7.1044,-7.1045,-7.1045,-7.1046,0,-7.0441,-7.0453,-7.05,-7.0553,-7.0593,-7.0635,-7.0676,-7.0701,-7.0729,-7.0766,-7.0822,-7.0856,-7.0925,-7.0977,-7.103,-7.1055,-7.1055,-7.1058,-7.1069,-7.1062,-7.1051,-7.1055,-7.0941,-7.1053,-7.1052,-7.1052,-7.1051,-7.1051,-7.0496,-7.0535,-7.058,-7.0633,-7.0667,-7.0706,-7.0745,-7.0773,-7.082,-7.0877,-7.0888,-7.0947,-7.099,-7.1061,-7.1089,-7.1135,-7.1124,-7.1141,-7.1145,-7.1148,-7.1149,-7.1047,-7.1145,-7.1145,-7.1144,-7.1144,-7.1144,0,-7.0577,-7.0607,-7.0656,-7.0714,-7.0756,-7.0756,-7.0803,-7.0837,-7.0889,-7.093,-7.0974,-7.1039,-7.1091,-7.1126,-7.1179,-7.121,-7.1211,-7.1222,-7.1218,-7.1224,-7.1156,-7.114,-7.122,-7.122,-7.122,-7.122,-7.122,-7.122,-7.0623,-7.0688,-7.0706,-7.0788,-7.0818,-7.0877,-7.0903,-7.0939,-7.0972,-7.1044,-7.1088,-7.1112,-7.1151,-7.1207,-7.1255,-7.1264,-7.1282,-7.1294,-7.1302,-7.1237,-7.1229,-7.1221,-7.1206,-7.1299,-7.1299,-7.1366,-7.1366,-7.1367]},{"header":{"parameterUnit":"m.s-1","parameterCategory":1,"la1":30.2991,"la2":30.254,"lo1":-89.0895,"lo2":-89.0444,"dy":0.0017,"dx":0.0017,"nx":28,"ny":28,"refTime":"2024-04-27T21:00:00:Z","depth":0,"parameterNumber":3,"parameterNumberName":"V-component_of_WINDS"},"data":[0,0,0,0,0,0,0,0,0,0,0,0,0,0,0,0,0,0,0,0,0,0,0,0,0,0,0,0,0,0,0,0,0,0,0,0,0,0,0,0,0,0,0,0,0,0,0,0,0,0,0,0,0,0,0,0,0,0,3.7334,3.7335,0,3.7428,3.7429,3.743,3.7499,3.7499,3.75,3.75,3.7592,3.7594,3.7595,0,0,0,0,0,0,0,0,0,0,0,0,0,3.7214,3.7216,3.7334,3.7335,3.7337,3.7427,3.7429,3.743,3.7499,3.7499,3.75,3.7501,3.7591,3.7593,3.7596,0,0,0,0,0,0,0,0,0,0,0,0,0,3.7282,3.7216,3.7334,3.7382,3.7387,3.7427,3.7429,3.743,3.7498,3.7499,3.75,3.7501,3.759,3.7593,3.7596,3.7595,0,0,3.7604,3.7606,0,0,0,0,0,0,0,0,3.7278,3.7287,3.7374,3.7379,3.7385,3.7453,3.742,3.7485,3.7498,3.7456,3.75,3.7502,3.7544,3.7551,3.7566,3.7599,3.7603,3.7605,3.7606,3.7608,3.7608,0,0,0,0,0,0,0,3.7274,3.7283,3.7371,3.7375,3.7381,3.7398,3.7409,3.7432,3.7494,3.746,3.7465,3.7475,3.7548,3.7564,3.7569,3.7604,3.7605,3.7607,3.7609,3.761,3.7643,3.7642,0,0,0,0,0,0,3.7262,3.7279,3.7368,3.7374,3.7333,3.74,3.7412,3.743,3.7494,3.7504,3.7474,3.7478,3.7558,3.7566,3.7572,3.7577,3.7608,3.761,3.7612,3.7644,3.7643,3.7642,0,0,0,0,0,0,3.7259,3.7269,3.7364,3.7328,3.7341,3.7401,3.742,3.7431,3.7447,3.7505,3.7516,3.748,3.7559,3.7569,3.759,3.7581,3.7611,3.7614,3.7645,3.7644,3.7643,3.7585,0,0,0,0,0,0,3.7255,3.7268,3.7268,3.7327,3.7343,3.738,3.742,3.7432,3.7452,3.7458,3.7513,3.7523,3.7561,3.7585,3.7592,3.7586,3.7616,3.7646,3.7644,3.7643,3.7588,3.7582,3.7577,0,0,0,0,0,3.7251,3.7246,3.7268,3.7278,3.7345,3.7379,3.7388,3.7434,3.7451,3.7452,3.749,3.7521,3.7581,3.7587,3.7595,3.7589,3.7647,3.7645,3.7643,3.759,3.7583,3.7577,0,0,0,0,0,0,3.7182,3.7255,3.7279,3.7294,3.7331,3.7391,3.7393,3.7424,3.7455,3.7459,3.7512,3.7524,3.754,3.7567,3.7572,3.7593,3.7618,3.7618,3.7575,3.7568,3.7563,3.7556,3.7618,0,0,0,0,0,3.7169,3.7192,3.7254,3.7262,3.7279,3.7333,3.735,3.7382,3.7421,3.7436,3.7475,3.7511,3.7538,3.7555,3.7583,3.7592,3.7606,3.7593,3.7587,3.7582,3.7582,3.7591,3.7586,3.7636,3.7636,3.7636,0,0,3.7142,3.7185,3.7195,3.7249,3.7281,3.7304,3.7345,3.7366,3.7384,3.7439,3.7462,3.7492,3.7535,3.7551,3.756,3.7574,3.7571,3.758,3.7576,3.7578,3.7589,3.7584,3.758,3.7635,3.7635,3.7636,0,0,3.7104,3.7138,3.715,3.7182,3.723,3.7267,3.7269,3.7326,3.7349,3.7373,3.7416,3.7437,3.7482,3.7512,3.7533,3.751,3.754,3.7518,3.7489,3.7497,3.7493,3.749,3.7483,3.748,3.7517,3.7517,3.7516,0,3.7064,3.7101,3.7151,3.7171,3.7194,3.7247,3.7259,3.7287,3.7341,3.7356,3.7371,3.7431,3.7464,3.7489,3.7484,3.7499,3.7504,3.7511,3.749,3.7487,3.7485,3.7479,3.7476,3.7514,3.7514,3.7514,3.7514,0,3.705,3.7074,3.7077,3.7131,3.7155,3.717,3.7223,3.724,3.7271,3.7306,3.7331,3.7373,3.7411,3.742,3.7448,3.7449,3.7457,3.748,3.7506,3.7476,3.7472,3.747,3.7509,3.751,3.7511,3.7512,0,0,3.697,3.7054,3.7054,3.708,3.7139,3.7159,3.7177,3.7217,3.7232,3.7268,3.7285,3.7324,3.7347,3.7371,3.7404,3.7412,3.7393,3.7435,3.7437,3.7427,3.7398,3.7381,3.7377,3.7414,3.7413,3.7413,3.7395,0,3.6942,3.698,3.7027,3.7049,3.7073,3.7125,3.7142,3.7179,3.7213,3.7238,3.7275,3.7302,3.733,3.7345,3.7355,3.7393,3.7388,3.7395,3.743,3.7431,3.7419,3.7375,3.7356,3.7336,3.7393,3.7393,3.7393,0,3.6915,3.6951,3.6975,3.7035,3.7047,3.7061,3.7102,3.7126,3.717,3.7194,3.7222,3.7259,3.7281,3.7305,3.7337,3.7341,3.7358,3.738,3.738,3.7385,3.741,3.738,3.7331,3.7329,3.739,3.739,3.7391,0,3.6856,3.6911,3.6933,3.6954,3.7023,3.7032,3.7061,3.7106,3.7128,3.7164,3.7179,3.7216,3.7237,3.7265,3.7311,3.7323,3.7338,3.7365,3.7359,3.7358,3.736,3.7359,3.7315,3.737,3.737,3.737,3.737,0,3.6821,3.6834,3.6908,3.6922,3.6939,3.6993,3.7008,3.7042,3.7082,3.7103,3.715,3.7169,3.7228,3.7254,3.7289,3.7312,3.732,3.734,3.735,3.7337,3.7334,3.7349,3.7352,3.7369,3.7369,3.7369,3.737,0,3.6758,3.6808,3.6837,3.6901,3.6917,3.6927,3.6982,3.6997,3.7034,3.7061,3.707,3.7128,3.7161,3.721,3.7257,3.7281,3.7298,3.7313,3.7284,3.729,3.7282,3.7282,3.7245,3.7244,3.7298,3.7298,3.7297,0,3.6732,3.6744,3.6811,3.6829,3.6858,3.6886,3.691,3.6964,3.6986,3.7039,3.7048,3.7085,3.7118,3.7168,3.7214,3.7251,3.7268,3.7252,3.7273,3.7261,3.7269,3.7268,3.727,3.7247,3.7246,3.7246,3.7245,0,3.6682,3.6707,3.674,3.6782,3.6809,3.6844,3.6881,3.6893,3.6955,3.6978,3.7014,3.7039,3.7089,3.7126,3.7169,3.7199,3.7232,3.7238,3.7239,3.7226,3.7209,3.722,3.7271,3.7239,3.7239,3.724,3.724,3.724,3.6639,3.6653,3.6702,3.6738,3.6772,3.6806,3.6825,3.6865,3.6896,3.6942,3.6972,3.7007,3.7052,3.7115,3.7143,3.7171,3.7184,3.7185,3.7186,3.7185,3.7181,3.7205,3.7178,3.7179,3.7179,3.7179,3.7179,0,3.6592,3.6628,3.666,3.6712,3.6739,3.6771,3.6814,3.6835,3.6865,3.6906,3.6938,3.698,3.7016,3.7066,3.7106,3.7119,3.7135,3.7127,3.7127,3.7134,3.7166,3.7162,3.7114,3.7114,3.7114,3.7114,3.7114,3.7114,3.6572,3.6598,3.6629,3.6673,3.6708,3.6743,3.6766,3.6798,3.6831,3.6876,3.6907,3.694,3.6985,3.7029,3.7064,3.7078,3.7091,3.7078,3.7097,3.7125,3.7131,3.7137,3.7134,3.708,3.708,3.7063,3.7063,3.7063]}]]